Homer, AK

2:02 AM AKDT on October 23, 2017 (GMT -0800)
Homer

Weather History for PAHO - April, 2014

Change the Weather History Date:

Wednesday, April 30, 2014

  Actual Average Record
Temperature  
Mean Temperature 44 °F -  
Max Temperature 53 °F 48 °F 64 °F (2005)
Min Temperature 34 °F 32 °F 19 °F (1949)
Degree Days  
Heating Degree Days 22    
Moisture  
Dew Point 34 °F    
Average Humidity 67    
Maximum Humidity 82    
Minimum Humidity 47    
Precipitation  
Precipitation 0.00 in - - ()
Sea Level Pressure  
Sea Level Pressure 30.47 in    
Wind  
Wind Speed 5 mph (WSW)    
Max Wind Speed 16 mph    
Max Gust Speed 22 mph    
Visibility 10 miles    
Events      
Averages and records for this station are not official NWS values.
T = Trace of Precipitation, MM = Missing Value Source: NWS Daily Summary

Daily Weather History Graph

Daily Weather History Graph

Search for Another Location

Airport or City:

Trip Planner

Search our weather history database for the weather conditions in past years. The results will help you decide how hot, cold, wet, or windy it might be!

Date:

Astronomy

Apr. 30, 2014 Rise Set
Actual Time 6:07 AM AKDT 10:00 PM AKDT
Civil Twilight 5:15 AM AKDT 10:52 PM AKDT
Nautical Twilight 3:57 AM AKDT 12:12 AM AKDT
Astronomical Twilight 2:35 AM AKDT 1:30 AM AKDT
Moon 7:07 AM AKDT (4/30) No Moon Set
Length of Visible Light 17h 36m
Length of Day
15h 52m
Waxing Crescent, 3% of the Moon is Illuminated
Apr 30
Waxing Crescent
May 6
First Quarter
May 14
Full
May 21
Last Quarter
May 28
New

Hourly Weather History & Observations

Time (AKDT) Temp. Windchill Dew Point Humidity Pressure Visibility Wind Dir Wind Speed Gust Speed Precip Events Conditions
12:53 AM 39.9 °F - 30.9 °F 70% 30.35 in 10.0 mi Calm Calm - N/A   Clear
1:53 AM 37.0 °F 34.5 °F 30.9 °F 79% 30.37 in 10.0 mi NE 3.5 mph - N/A   Clear
2:53 AM 37.0 °F 34.5 °F 30.9 °F 79% 30.37 in 10.0 mi ENE 3.5 mph - N/A   Clear
3:53 AM 36.0 °F 33.3 °F 30.9 °F 82% 30.38 in 10.0 mi NE 3.5 mph - N/A   Clear
4:53 AM 37.9 °F 34.4 °F 32.0 °F 79% 30.40 in 10.0 mi ENE 4.6 mph - N/A   Clear
5:53 AM 34.0 °F 29.8 °F 28.9 °F 82% 30.40 in 10.0 mi NNE 4.6 mph - N/A   Clear
7:53 AM 39.9 °F - 34.0 °F 79% 30.43 in 10.0 mi Calm Calm - N/A   Clear
8:53 AM 45.0 °F - 36.0 °F 71% 30.45 in 10.0 mi Calm Calm - N/A   Clear
9:53 AM 48.0 °F - 37.0 °F 66% 30.46 in 10.0 mi South 3.5 mph - N/A   Clear
10:53 AM 50.0 °F - 35.1 °F 57% 30.47 in 10.0 mi SW 6.9 mph - N/A   Clear
11:53 AM 53.1 °F - 35.1 °F 50% 30.48 in 10.0 mi WSW 5.8 mph - N/A   Clear
12:53 PM 50.0 °F - 37.9 °F 63% 30.49 in 10.0 mi WSW 13.8 mph - N/A   Clear
1:53 PM 50.0 °F - 37.0 °F 61% 30.49 in 10.0 mi West 16.1 mph 21.9 mph N/A   Clear
2:53 PM 51.1 °F - 37.0 °F 59% 30.49 in 10.0 mi WSW 15.0 mph - N/A   Partly Cloudy
3:53 PM 53.1 °F - 35.1 °F 50% 30.51 in 10.0 mi West 15.0 mph - N/A   Partly Cloudy
4:53 PM 53.1 °F - 33.1 °F 47% 30.51 in 10.0 mi West 16.1 mph 21.9 mph N/A   Clear
5:53 PM 50.0 °F - 36.0 °F 59% 30.51 in 10.0 mi West 15.0 mph - N/A   Clear
6:53 PM 50.0 °F - 35.1 °F 57% 30.51 in 10.0 mi WSW 13.8 mph - N/A   Clear
7:53 PM 48.0 °F - 35.1 °F 61% 30.52 in 10.0 mi WSW 11.5 mph - N/A   Clear
8:53 PM 46.0 °F 41.4 °F 36.0 °F 68% 30.52 in 10.0 mi WSW 9.2 mph - N/A   Clear
9:53 PM 44.1 °F 40.8 °F 36.0 °F 73% 30.53 in 10.0 mi WSW 5.8 mph - N/A   Clear
10:53 PM 41.0 °F - 34.0 °F 76% 30.55 in 10.0 mi Calm Calm - N/A   Clear
11:53 PM 41.0 °F 39.0 °F 34.0 °F 76% 30.55 in 10.0 mi ENE 3.5 mph - N/A   Clear